Theta_e
319 319 321 323 325 326 327 328 327 328 330 330 330 329 330 331 330 330 331 332 332 332 331 332 332 332 331 330 330 330 330 329 329 329 329 328 329 330 328 329 329 329 328 330 332 334 333 333 333 333 332 333 333 333 332 332 332 332 331 330 329 329 327 326 323 323 324 324 326 324 325 325 323 325 323 325 324 321 317 323 323 323 322 323 323
317 318 320 322 324 327 327 328 328 328 328 329 327 328 329 330 330 329 329 330 331 331 332 332 332 332 332 331 330 330 330 329 329 329 329 329 328 329 330 329 329 329 331 330 333 333 335 333 331 333 333 333 333 331 332 330 330 329 329 329 328 328 330 326 324 323 322 322 322 322 323 324 323 324 326 325 324 322 320 320 320 320 318 320 319
318 319 319 321 323 325 327 327 328 328 325 326 327 328 329 330 330 329 329 330 331 332 333 333 332 332 331 330 330 330 329 329 329 330 330 329 327 328 329 329 329 329 331 332 332 332 331 330 330 333 333 334 334 333 333 331 330 329 329 329 328 329 328 328 325 323 323 322 324 322 322 322 324 322 323 325 324 322 319 318 318 316 316 318 316
317 318 319 321 323 324 325 326 326 327 325 327 328 329 329 329 329 329 329 330 330 331 333 333 331 330 330 330 330 329 329 328 330 331 331 331 329 328 328 328 329 332 333 333 333 332 331 330 332 333 332 333 332 332 331 332 331 330 329 329 329 328 329 329 328 325 323 321 320 321 322 323 322 319 321 321 321 319 319 318 317 316 316 314 315
315 316 318 320 323 324 324 325 325 325 326 327 328 329 328 327 327 327 329 329 329 330 331 332 330 330 328 329 330 330 329 329 331 332 334 334 331 330 330 329 330 334 335 335 333 333 333 332 332 332 333 332 331 331 331 331 330 330 329 328 327 329 328 327 327 327 325 323 321 319 321 321 321 319 319 318 317 317 316 315 315 315 316 316 314
313 315 317 319 320 322 324 325 325 325 325 326 327 328 328 327 327 327 328 328 328 329 330 330 330 329 330 330 332 331 330 331 332 333 334 335 332 331 332 331 333 335 334 335 334 335 334 334 333 333 331 331 331 331 331 331 330 330 329 328 327 328 327 326 327 326 325 324 324 318 318 318 316 317 318 319 318 315 314 314 313 313 313 314 314
312 314 316 317 318 320 322 324 325 325 325 325 326 326 327 328 327 326 328 328 328 327 327 326 327 329 330 330 330 330 330 331 333 334 334 334 334 334 334 333 332 335 334 334 334 335 335 334 334 334 332 332 332 332 331 331 331 330 330 330 327 327 327 326 325 325 325 323 321 322 319 318 320 317 314 316 317 315 315 314 313 312 314 313 314
311 312 313 314 316 317 319 321 324 325 325 326 326 326 326 326 326 327 327 328 328 327 324 324 326 327 328 328 327 327 328 330 332 333 333 333 333 333 333 333 332 332 333 333 334 335 335 335 334 334 334 333 333 333 333 332 331 331 331 330 329 326 326 325 325 324 323 323 321 318 318 317 315 315 312 312 313 312 312 313 312 314 315 316 315
309 310 311 312 313 315 316 318 321 324 325 325 325 324 325 325 326 326 326 327 327 327 325 325 325 326 327 326 324 325 327 329 331 332 332 331 333 332 333 332 332 331 330 332 332 332 333 333 334 334 334 328 319 322 323 322 331 330 330 330 329 328 327 326 325 323 324 322 319 319 316 315 315 315 313 313 313 314 316 315 313 315 314 314 315
308 308 309 309 311 312 314 316 318 320 322 323 324 324 325 325 325 325 325 326 327 327 325 325 325 326 324 323 324 325 327 328 323 315 318 330 331 331 332 333 332 331 330 330 329 328 329 330 327 317 313 311 308 303 303 306 311 324 329 329 328 327 326 324 323 323 322 319 318 316 315 315 315 316 316 316 316 314 313 314 312 314 314 315 316
307 307 307 308 309 311 312 314 316 318 321 322 324 324 324 324 324 324 325 325 325 325 324 323 324 325 324 322 321 321 321 318 302 304 307 311 327 331 332 332 332 331 330 328 326 325 324 323 322 316 313 309 306 297 297 297 297 298 299 302 310 329 325 322 322 322 318 318 316 316 314 314 315 316 315 315 315 314 314 315 315 316 316 315 313
306 306 307 307 307 309 311 314 317 319 321 322 323 323 324 323 322 320 320 321 322 323 324 322 322 322 322 322 320 318 315 301 295 299 301 305 315 331 331 331 330 329 327 327 325 324 322 321 320 320 320 315 311 307 301 296 296 295 295 296 295 294 299 321 320 318 319 316 315 316 318 319 317 316 314 315 316 317 318 318 318 318 318 316 315
305 305 305 305 306 308 310 313 316 318 319 320 321 322 322 322 320 320 320 320 319 319 319 318 315 315 316 317 316 314 311 295 295 297 300 302 306 319 329 329 328 326 324 323 322 322 322 321 320 319 316 314 315 313 311 307 300 298 300 300 299 298 295 294 300 326 325 322 322 321 322 322 322 322 323 323 324 323 320 319 319 318 317 316 315
305 304 305 305 305 306 309 311 312 314 315 316 317 319 321 320 319 320 318 317 317 316 315 315 313 313 315 315 315 315 313 297 295 297 299 300 304 314 327 325 324 323 322 321 321 321 321 321 320 319 320 321 321 320 319 319 320 321 321 321 319 312 304 302 302 302 315 327 325 322 323 325 322 322 321 322 323 322 322 321 321 319 318 317 316
304 304 304 304 304 305 308 309 310 311 312 311 310 309 311 313 313 313 312 314 314 313 312 311 312 313 314 315 315 313 308 294 295 297 298 299 302 309 322 321 321 320 320 321 321 322 322 322 321 320 320 323 324 321 321 320 320 319 318 317 316 313 312 314 318 321 321 322 322 320 318 319 319 319 319 321 322 321 321 321 321 321 320 318 315
303 302 302 302 303 304 306 307 308 309 309 309 307 305 304 305 306 307 308 309 309 309 308 310 311 312 314 315 313 309 303 294 296 297 298 301 304 318 319 318 317 317 317 318 318 320 321 321 320 319 317 316 307 302 310 318 318 317 315 315 313 310 304 297 295 299 308 311 311 309 307 303 299 308 307 314 320 320 319 321 321 320 318 316 313
300 299 300 301 302 302 305 306 306 306 306 307 306 304 302 302 303 304 303 303 302 302 302 305 308 312 313 313 310 307 305 298 296 297 299 302 308 316 314 314 314 314 313 313 313 314 316 318 318 317 316 314 303 298 300 307 318 316 315 314 312 309 306 302 295 293 293 293 292 292 292 292 293 293 293 292 305 314 320 317 315 317 315 311 311
299 299 299 301 302 302 304 305 305 304 304 303 303 304 303 302 301 302 301 300 300 300 302 303 304 306 308 309 310 309 307 299 296 298 299 301 307 314 313 313 312 311 310 308 308 307 306 307 315 318 316 314 296 297 299 310 314 314 315 312 311 309 308 307 306 301 294 294 293 293 293 294 294 294 294 295 296 305 318 313 315 315 313 312 310
299 298 298 300 302 302 302 304 304 304 303 303 303 303 302 301 301 301 301 300 299 300 300 300 300 301 303 304 304 305 305 301 295 295 297 300 309 313 311 310 309 308 305 303 306 305 305 302 300 305 309 301 293 296 300 309 316 316 315 314 310 309 309 312 312 311 311 310 309 308 305 302 306 306 302 296 297 303 312 313 315 312 309 309 309
298 299 299 299 300 302 302 303 304 303 303 303 303 304 303 302 301 300 300 300 299 299 299 298 297 297 298 300 300 301 300 299 297 294 296 298 300 310 310 308 304 303 304 304 305 306 306 303 298 291 292 292 293 294 296 300 313 315 315 313 310 308 311 312 311 311 309 307 306 306 305 305 304 304 305 304 304 304 306 308 310 311 309 307 304
299 299 299 298 298 300 301 302 303 303 303 303 304 305 304 303 302 301 300 300 299 298 297 297 296 296 297 297 297 297 299 298 296 292 294 296 298 301 304 302 302 302 303 304 304 303 302 300 298 292 291 292 292 293 294 296 301 313 313 311 310 307 305 308 306 301 308 306 306 306 305 304 304 303 303 302 301 303 303 304 305 306 306 304 302
300 300 299 298 297 297 298 300 302 302 303 303 303 303 304 304 304 303 301 300 299 298 298 297 297 296 296 297 296 295 296 296 297 293 292 293 295 297 303 303 302 303 303 303 302 300 298 298 298 293 291 291 292 292 293 294 295 303 302 294 293 296 309 309 309 309 307 307 306 304 304 303 303 302 302 302 301 302 303 303 303 304 303 304 302
299 299 299 298 298 297 297 297 298 301 301 302 302 301 302 302 302 303 301 299 299 298 298 297 297 296 296 296 296 296 295 295 292 294 291 292 292 293 295 298 295 303 302 301 301 299 298 297 295 292 291 291 292 292 292 293 295 295 291 292 293 294 300 307 307 307 306 305 305 303 303 302 302 301 301 301 301 303 302 303 303 303 302 301 302
299 298 298 298 298 297 296 296 297 298 299 300 300 300 300 301 301 301 300 299 297 296 296 297 297 296 295 295 296 296 296 296 293 291 292 291 291 291 292 293 295 301 302 300 300 299 297 296 294 290 291 290 290 291 291 292 294 290 291 291 293 297 305 305 304 304 302 302 302 301 301 301 301 300 300 301 301 302 302 303 303 303 303 302 301
298 297 297 298 297 297 296 296 295 296 297 297 297 298 299 300 299 299 299 298 297 296 295 296 296 295 295 294 295 295 296 296 296 294 291 291 291 291 291 292 292 294 298 298 297 297 292 290 290 290 290 291 291 291 291 290 290 290 291 293 298 304 305 304 303 304 301 300 300 300 299 299 300 300 302 302 303 303 303 302 303 303 303 302 302
299 297 297 297 297 297 296 295 295 295 295 296 296 296 296 297 297 298 298 297 297 296 296 295 295 294 294 294 294 294 294 295 295 296 295 294 292 291 291 291 292 292 293 293 290 290 290 291 291 292 292 293 296 295 293 293 291 291 292 296 303 302 302 302 302 300 299 298 298 298 299 300 300 301 302 302 301 300 301 301 300 301 302 300 299
299 298 297 297 296 296 296 294 294 293 293 294 295 295 295 294 294 295 296 296 295 294 294 294 294 294 294 294 294 294 293 293 294 295 296 297 297 297 296 295 293 293 295 295 294 294 293 293 292 290 290 290 291 291 292 293 296 298 299 299 300 300 300 300 300 299 298 298 297 298 298 299 301 301 300 300 299 299 301 299 300 298 299 299 297
299 299 298 297 296 296 296 290 293 293 292 292 292 293 295 294 292 291 292 294 295 294 294 293 293 294 294 295 296 296 294 292 291 291 293 295 297 297 297 297 296 296 296 296 296 296 295 292 294 296 296 296 295 295 295 296 296 296 298 297 296 296 294 294 296 299 298 298 298 298 299 299 299 299 298 298 298 298 300 299 298 298 297 298 295
299 299 299 298 297 297 296 295 294 294 294 293 291 291 291 294 294 292 291 292 293 295 294 293 293 293 293 293 295 296 293 292 290 288 289 288 292 297 297 297 297 296 295 293 296 296 296 296 295 295 294 292 292 294 294 295 295 298 298 298 298 298 299 299 297 297 298 298 297 298 297 298 298 297 297 296 296 297 299 298 298 297 297 297 294
298 298 298 298 298 298 297 296 295 293 293 294 293 292 288 288 291 293 292 289 288 289 290 292 293 295 292 290 291 294 292 290 288 288 288 289 289 289 289 290 290 293 291 291 294 293 291 291 292 293 292 292 293 293 294 294 293 293 294 292 295 296 296 296 296 296 297 295 296 295 295 295 295 295 295 295 295 295 295 293 296 296 295 294 293
298 298 298 297 295 298 298 297 296 295 294 293 294 292 293 291 288 288 289 289 288 288 288 288 288 289 292 290 288 287 287 287 287 288 288 288 288 289 289 289 289 289 290 292 291 291 291 290 291 292 292 293 292 293 293 292 292 293 293 294 295 294 293 294 294 293 293 293 293 293 294 294 293 293 293 294 294 294 295 294 295 295 295 294 292
296 296 296 297 296 297 298 298 298 296 296 295 294 294 294 293 292 289 288 289 288 288 288 288 288 288 289 290 291 290 288 288 288 288 288 288 288 288 288 288 288 289 289 291 291 291 291 291 291 290 291 291 291 292 293 293 293 292 292 292 292 293 293 293 293 295 293 293 292 292 292 293 293 292 293 292 292 294 294 293 293 293 292 294 293
295 296 296 297 297 296 296 297 297 297 297 296 295 294 293 293 293 293 292 289 289 288 288 288 288 288 288 288 288 288 287 288 288 289 289 289 288 288 288 288 288 289 290 291 291 291 291 291 291 292 291 290 292 292 293 294 294 293 293 293 292 293 294 292 291 294 292 293 292 292 292 292 291 291 291 292 292 292 292 292 292 293 293 292 291
297 295 295 296 296 295 295 295 295 296 296 297 297 297 296 295 295 295 295 294 293 291 289 289 288 289 288 288 288 288 288 288 288 288 288 288 288 288 288 289 289 289 290 291 291 291 292 292 291 291 292 291 292 292 292 292 294 294 294 294 294 294 294 295 294 292 292 292 291 291 292 292 291 292 291 292 292 291 291 291 292 291 290 291 290
297 292 288 290 295 295 295 295 295 295 295 296 297 296 297 296 295 295 295 294 292 290 290 290 289 288 289 289 288 288 288 288 288 288 288 288 288 289 290 293 291 292 293 293 293 292 292 292 292 292 293 292 293 292 293 294 294 293 292 292 294 294 293 293 293 293 292 293 292 292 292 291 292 291 291 291 291 290 290 290 290 291 290 290 290
297 297 297 295 296 297 296 296 296 295 294 294 295 296 295 295 295 295 293 294 294 293 291 291 291 289 288 288 287 287 288 288 288 288 287 287 288 290 291 291 291 291 291 292 292 292 292 292 292 292 293 293 294 292 294 293 294 294 294 293 292 292 293 291 291 292 291 291 291 291 291 291 292 291 291 291 290 290 290 290 290 290 290 289 289
296 296 297 297 297 297 297 296 296 295 291 293 295 295 295 295 294 296 296 294 292 293 294 294 295 294 292 293 291 289 288 288 288 288 288 288 289 291 291 291 290 291 291 291 292 292 293 292 293 293 294 293 294 294 293 293 294 293 292 294 293 292 292 292 292 290 291 291 291 290 290 291 291 290 291 290 290 290 290 290 290 289 289 288 288
296 296 296 297 298 298 297 296 294 290 294 295 297 296 296 296 296 295 294 292 293 291 294 294 293 295 293 292 293 293 292 290 290 290 290 289 290 290 291 291 291 291 291 292 293 293 293 293 294 294 294 294 294 294 294 294 292 292 291 291 291 290 288 289 288 289 290 291 291 291 291 291 291 291 290 290 290 290 289 289 290 290 289 288 289
296 289 286 287 290 297 296 295 295 296 296 296 296 294 293 294 295 295 295 295 294 294 294 296 296 294 293 293 294 295 294 294 292 292 291 291 292 293 293 293 293 293 293 293 293 293 294 293 293 294 294 294 294 294 294 293 293 292 291 291 291 290 291 291 291 291 291 291 291 291 291 291 292 291 291 290 290 289 289 289 289 289 289 289 289
297 296 292 289 294 294 295 296 294 295 294 297 296 296 294 295 295 292 295 294 292 293 295 295 295 295 294 295 294 295 294 291 292 292 291 291 291 292 293 291 292 292 293 293 293 293 293 293 293 294 294 294 294 294 294 291 291 291 292 291 291 290 290 291 291 291 291 291 291 291 291 291 291 291 291 291 290 290 289 289 289 289 289 289 289
298 296 292 291 291 296 295 295 294 294 295 294 295 296 295 294 295 294 295 294 294 294 295 295 295 295 294 290 286 289 295 293 294 293 292 292 292 292 292 293 292 293 293 292 293 293 293 293 293 293 293 293 292 291 292 291 291 291 291 291 291 290 290 290 290 290 290 290 291 291 291 291 291 291 290 290 289 290 290 290 290 290 290 289 289
298 297 297 295 295 296 295 294 295 293 294 295 296 296 294 294 295 296 295 293 293 294 295 296 296 295 289 285 286 287 294 294 294 293 294 294 294 293 293 293 294 294 293 294 294 291 291 292 291 292 292 291 290 291 291 291 291 291 291 291 290 290 290 290 289 288 290 291 290 290 291 291 290 290 290 289 291 291 290 290 290 290 290 290 289
297 297 297 297 296 296 295 295 296 296 296 295 294 292 294 295 296 295 296 294 295 295 295 294 295 295 292 286 287 287 294 295 291 293 293 293 293 292 293 292 293 294 294 294 294 293 292 291 291 292 291 291 291 291 292 292 292 291 291 290 290 290 289 289 289 289 290 290 290 289 289 290 290 291 291 290 290 290 290 289 289 290 289 289 289
297 297 296 296 296 296 295 296 295 295 295 292 292 293 293 295 296 297 296 296 296 294 295 295 294 294 290 289 288 291 294 295 295 295 294 293 292 292 293 293 293 293 293 293 293 293 293 291 291 291 290 291 291 292 291 291 291 291 290 290 289 288 289 289 289 289 290 291 290 290 290 290 290 290 289 289 290 289 289 289 289 289 289 289 289
298 298 297 297 297 297 296 296 295 295 292 293 295 295 294 296 296 296 296 296 297 295 295 294 294 292 291 290 292 293 294 296 293 293 293 294 293 293 293 292 292 292 292 290 291 292 290 290 291 290 289 290 290 291 290 289 290 290 291 290 290 289 289 289 288 288 288 289 290 290 290 290 290 290 290 290 289 289 289 288 288 286 287 287 287
298 298 297 297 297 296 295 296 293 297 296 295 295 295 295 296 296 296 296 296 295 296 294 294 294 294 294 294 293 292 294 295 295 294 294 293 293 293 293 293 292 291 291 291 290 290 291 291 291 291 290 289 289 289 290 289 289 290 290 290 290 289 288 287 286 286 287 288 290 291 290 290 290 289 287 289 289 288 287 286 286 286 286 286 286
298 298 297 297 296 295 294 296 296 296 297 295 296 295 296 296 296 294 293 294 296 294 295 297 297 295 292 293 293 294 294 293 293 294 293 294 294 293 293 292 292 292 291 290 288 289 288 288 290 290 289 289 288 288 289 290 289 290 289 289 287 286 286 286 286 286 287 286 287 290 290 290 289 288 286 286 286 286 285 285 285 284 284 284 285
298 297 297 296 297 296 296 296 295 292 295 294 295 294 293 294 295 294 295 295 296 296 296 296 297 297 296 297 297 295 294 293 294 293 294 293 293 292 292 291 290 291 291 290 289 289 288 289 288 288 287 287 287 288 289 289 289 288 288 287 286 286 284 282 285 285 286 286 286 287 287 288 288 287 286 285 285 285 284 285 284 284 284 284 285
297 297 297 296 296 296 296 295 294 295 295 295 294 295 293 294 293 294 295 295 295 296 296 296 297 297 296 297 297 296 295 293 295 294 294 294 292 291 292 291 289 290 290 291 290 289 288 288 287 288 288 288 288 288 287 287 287 287 285 286 282 275 276 277 282 285 282 285 286 286 287 286 286 285 284 285 284 284 284 283 283 283 284 284 285
297 296 297 296 297 296 297 296 296 296 296 296 295 295 295 295 294 294 294 295 295 295 296 295 295 296 297 297 296 296 296 295 294 293 295 293 294 292 292 291 290 290 290 290 290 289 289 288 287 287 287 287 287 287 287 287 286 285 285 284 275 274 275 274 275 276 281 285 285 287 287 287 286 286 286 285 284 283 283 283 283 283 284 283 284
296 296 297 296 296 296 297 297 297 296 296 295 296 295 295 295 295 295 294 294 294 294 294 295 295 296 295 296 295 296 296 296 295 295 295 295 294 293 291 291 290 290 290 289 289 289 289 288 288 287 287 286 286 286 286 285 285 284 280 274 273 274 273 275 279 274 273 279 284 285 286 285 285 285 285 285 284 284 283 283 283 283 284 284 284
Wind_Speed
10 9 9 9 10 9 8 9 10 10 9 8 8 10 10 8 8 7 7 8 8 9 10 10 10 9 9 9 9 9 9 9 9 9 9 9 8 6 6 7 6 5 6 7 6 7 7 8 8 9 9 9 7 6 6 6 6 5 5 5 5 5 5 3 2 5 4 1 1 3 4 4 4 4 4 4 4 3 2 3 3 2 2 2 4
10 10 9 9 10 11 10 9 10 11 10 9 8 8 10 9 8 8 8 8 9 10 10 9 9 10 9 9 9 9 10 10 10 9 9 8 8 7 8 9 8 8 8 9 8 6 6 7 7 6 7 8 7 7 6 6 7 7 6 6 6 6 5 4 2 5 7 4 3 2 4 3 3 4 3 4 4 3 4 4 3 3 2 3 3
10 9 10 10 11 10 10 9 9 9 10 7 7 8 10 10 9 9 9 9 9 10 10 10 10 10 9 9 9 9 9 9 9 9 10 10 9 9 7 7 8 7 8 8 9 8 8 6 7 7 6 7 6 5 5 6 6 7 7 6 6 6 6 4 4 5 7 6 4 4 4 4 3 4 4 3 3 3 4 4 4 3 3 3 3
10 11 10 11 12 11 10 9 9 10 10 8 9 11 12 11 10 10 9 8 8 9 10 10 10 11 10 9 9 9 10 9 9 8 9 10 7 9 9 9 9 9 8 8 8 8 8 8 8 9 8 8 7 6 6 6 6 6 7 6 5 5 5 4 4 3 5 6 5 4 5 4 4 2 3 3 3 4 3 3 3 3 3 3 3
10 11 11 12 11 11 11 9 8 9 10 10 12 11 8 6 5 7 8 8 8 9 9 10 11 11 10 8 8 10 10 9 10 10 10 11 11 11 11 9 9 8 7 7 8 9 10 10 10 10 9 8 8 7 7 8 7 6 7 7 7 6 4 4 4 3 3 4 5 2 3 3 2 3 3 4 4 3 3 4 3 3 3 2 2
9 11 11 12 11 11 10 10 10 10 11 11 11 12 10 10 9 8 9 10 10 10 10 10 10 11 10 10 10 9 9 9 9 10 9 10 11 12 11 11 10 8 8 7 8 8 9 9 9 9 10 9 8 8 7 9 7 7 8 7 7 5 5 5 4 3 3 2 4 4 3 4 4 3 4 4 3 4 4 4 3 3 2 3 3
10 10 11 12 12 11 11 11 11 10 10 11 10 10 10 8 9 10 10 11 11 10 9 8 4 5 8 8 9 9 9 9 9 8 8 8 8 8 8 8 7 6 7 7 7 7 8 8 8 8 9 8 8 8 8 7 6 7 7 6 6 5 5 5 5 5 4 4 3 2 3 3 2 3 4 2 2 2 2 3 3 3 3 3 3
9 10 10 11 12 13 12 12 11 11 10 10 11 10 10 10 10 10 10 11 11 11 9 9 9 9 8 7 7 7 7 7 7 7 7 8 7 7 7 8 8 7 7 7 7 7 7 7 8 7 7 7 8 8 8 7 6 7 5 5 7 7 6 5 5 5 5 4 3 4 3 3 3 2 3 2 2 3 3 2 2 2 2 2 2
10 10 10 10 11 12 13 12 11 11 10 9 10 10 9 8 9 9 10 10 9 10 8 9 10 10 8 5 5 6 7 6 5 6 6 7 7 8 8 8 8 8 8 7 7 7 6 5 5 5 4 4 5 3 4 2 6 7 5 6 7 7 6 5 5 4 4 3 3 2 3 3 2 3 3 3 4 1 2 1 2 2 1 2 2
11 11 10 10 11 11 12 12 12 12 10 9 9 9 9 9 8 9 11 11 10 10 9 9 10 10 9 7 6 5 4 3 5 9 8 7 7 6 6 7 8 8 9 9 6 4 4 4 4 7 8 7 7 8 7 5 2 1 6 7 7 6 6 6 5 4 3 3 3 3 3 3 3 3 3 2 2 1 1 2 3 1 2 3 1
12 12 11 11 11 11 11 11 11 11 10 9 8 9 9 9 8 5 2 4 8 8 8 9 8 6 7 9 8 4 3 4 7 9 9 10 8 7 7 7 7 7 8 8 7 6 5 5 5 7 8 9 8 10 10 10 9 10 10 9 5 3 7 6 5 5 4 4 4 3 2 3 3 2 2 3 3 3 2 2 2 2 1 3 1
11 11 13 12 12 12 11 12 12 11 11 10 9 9 8 7 3 5 7 8 7 5 5 5 6 7 5 6 6 5 4 5 9 9 11 11 9 7 7 7 6 6 6 7 7 7 7 6 5 4 4 7 9 9 11 12 13 13 13 12 11 12 10 3 6 5 5 5 5 4 3 4 4 3 3 2 2 3 2 1 1 1 1 1 1
11 11 11 13 13 12 13 12 11 11 10 9 8 7 7 5 6 7 7 6 5 4 6 5 5 5 5 7 5 5 4 6 9 10 11 11 10 7 6 7 7 6 5 4 7 7 7 7 7 6 7 11 10 10 12 12 14 17 17 17 15 14 12 13 12 6 6 6 6 5 4 5 5 4 3 2 1 1 2 1 1 0 0 1 2
10 12 14 15 14 13 13 12 12 11 10 8 7 6 5 4 5 5 5 5 4 3 2 5 5 5 5 6 6 4 5 6 10 11 10 10 9 6 7 7 6 6 7 6 5 6 7 9 9 8 8 8 9 12 12 12 11 10 10 10 9 11 13 14 12 13 9 5 5 6 4 3 4 5 3 1 0 1 0 2 1 1 1 4 5
14 15 14 15 15 14 14 12 11 11 11 10 9 10 10 7 6 5 5 5 5 4 2 2 4 5 4 4 5 3 4 10 12 13 13 12 12 9 8 7 7 7 7 6 6 6 7 8 9 9 7 6 6 11 12 12 11 10 11 10 10 9 9 7 6 5 6 7 7 7 6 5 5 4 3 3 4 3 3 2 2 2 4 7 7
15 14 14 15 15 14 13 12 11 11 12 11 10 10 10 9 8 7 6 6 6 5 6 5 6 5 5 4 5 5 5 9 13 14 14 15 13 8 8 8 8 8 8 6 6 5 5 6 8 9 8 6 10 4 13 11 11 11 12 11 11 10 10 8 10 11 10 8 8 7 7 7 8 6 5 3 1 2 2 2 2 2 3 3 4
14 14 14 14 14 14 14 13 11 12 12 12 12 11 10 9 8 5 6 6 9 9 7 7 8 5 6 6 7 8 7 10 10 9 14 15 11 8 8 7 7 9 7 6 6 6 5 5 7 6 10 8 3 0 10 12 10 11 11 10 9 10 9 8 12 15 16 16 16 15 13 12 12 12 11 10 5 2 3 2 2 0 1 1 3
13 13 13 13 13 13 13 12 13 13 13 13 12 10 9 7 8 6 5 7 11 8 7 9 10 8 9 10 9 10 10 11 11 6 6 11 13 10 8 9 8 7 8 8 6 6 9 13 7 7 8 8 5 4 7 11 9 9 11 11 10 10 9 7 7 9 15 16 15 14 12 12 13 14 14 13 13 6 1 3 2 1 1 2 3
12 12 12 10 12 13 12 12 12 12 13 12 12 11 10 8 6 7 5 8 10 8 9 11 8 9 10 11 13 11 9 10 13 11 9 8 8 8 8 6 8 8 8 7 7 8 8 9 12 9 8 8 8 7 7 9 9 9 9 10 10 10 9 7 7 8 8 8 8 9 10 9 9 9 10 14 14 11 7 5 3 3 3 3 2
11 10 10 9 9 11 13 14 13 12 12 12 12 11 9 8 8 9 7 7 9 9 11 12 10 9 11 9 9 9 9 8 12 13 11 11 9 6 6 8 9 7 6 7 8 8 7 6 8 10 10 11 11 11 11 10 9 7 7 8 9 9 8 8 7 8 9 9 9 9 9 8 8 7 8 9 10 11 10 8 7 5 5 5 6
10 10 9 9 10 11 12 14 14 12 11 9 11 12 10 8 6 8 10 10 10 11 13 11 12 10 10 9 9 11 10 9 12 13 13 13 12 12 9 9 9 9 8 8 7 7 6 5 5 7 10 12 13 13 13 12 9 7 7 7 7 9 9 8 9 10 10 9 8 8 7 7 7 8 8 8 7 7 8 9 9 8 7 6 6
10 10 11 10 11 11 12 12 12 12 12 10 11 11 11 10 10 10 10 10 11 12 12 11 11 10 9 7 11 10 14 16 9 13 15 14 12 12 9 7 8 10 9 7 8 7 6 5 6 6 13 15 15 15 15 14 14 9 10 12 11 9 9 8 8 8 7 7 7 7 7 7 8 8 8 8 7 7 8 8 9 9 9 8 8
10 10 12 12 11 11 11 13 11 10 12 12 10 10 9 10 11 10 9 10 11 13 12 10 10 10 8 10 11 12 11 12 17 12 15 15 14 13 13 11 7 10 12 7 6 7 6 8 7 10 15 16 16 16 15 15 13 10 13 12 12 11 9 7 7 7 7 7 7 7 7 7 7 7 7 7 7 7 7 7 8 9 9 9 9
10 10 10 12 11 10 9 11 11 11 12 11 11 11 12 11 11 10 8 10 10 12 10 8 10 10 11 11 10 10 9 10 14 16 14 17 15 14 13 12 10 8 9 9 8 7 7 6 8 14 16 17 17 15 14 12 10 11 11 10 9 7 7 7 7 7 7 7 8 7 7 6 6 6 6 5 6 6 6 6 7 7 8 7 8
11 11 11 11 11 10 9 10 10 11 11 12 12 12 13 12 12 10 11 10 10 11 8 8 9 8 11 10 8 8 8 9 10 14 18 16 16 15 15 15 13 14 11 8 8 8 10 13 15 16 16 16 16 14 13 12 12 11 10 7 6 6 6 7 7 7 7 8 7 7 7 6 6 5 4 5 5 5 5 6 6 6 7 8 9
11 11 10 9 10 10 10 11 10 9 11 11 12 12 12 11 10 10 10 9 9 10 8 9 9 10 9 7 7 7 8 8 9 8 9 11 13 17 17 17 17 17 15 12 14 13 12 14 16 15 13 10 9 7 8 9 12 13 12 9 7 6 6 7 7 8 8 7 7 7 6 5 6 5 4 4 5 5 5 5 5 5 4 5 5
10 10 10 9 9 9 11 9 8 10 10 9 9 10 10 9 9 10 9 9 9 10 10 9 8 7 7 6 7 7 8 8 7 7 6 6 6 8 11 12 15 15 11 9 8 7 10 10 11 13 12 14 14 11 8 7 8 8 7 7 7 6 6 6 7 8 8 8 8 7 7 6 5 5 5 6 7 6 5 4 4 4 4 4 5
9 10 10 9 8 8 8 9 10 8 10 10 9 8 9 9 10 10 9 8 7 8 8 7 7 7 6 6 6 6 6 5 6 5 5 5 5 5 6 7 7 7 9 7 7 7 9 9 10 7 8 9 8 6 6 7 8 8 8 7 8 8 10 10 10 8 8 8 7 7 6 6 6 6 6 6 6 5 4 4 4 4 4 4 5
9 9 9 8 8 8 8 8 7 6 6 9 10 8 7 8 7 9 9 6 6 6 6 6 6 5 4 5 4 4 4 5 5 5 2 3 3 4 5 5 6 6 7 9 8 6 6 7 7 6 6 7 4 7 6 7 7 7 7 7 6 6 6 6 8 7 7 7 7 7 7 7 6 6 6 6 5 5 4 5 5 5 5 6 6
8 8 7 8 8 7 7 7 7 6 7 6 7 9 11 13 8 6 5 9 12 11 7 5 3 3 6 5 4 4 3 2 3 5 8 11 12 11 10 10 8 8 7 6 5 6 5 6 3 3 3 4 5 5 5 6 6 5 6 6 6 7 7 7 7 7 7 6 7 6 6 5 6 6 6 6 6 6 6 5 5 5 5 6 6
6 6 6 7 7 7 7 6 6 5 5 5 6 5 6 9 13 13 11 10 11 12 12 12 11 9 7 6 8 11 8 6 8 9 11 12 13 12 12 11 10 8 5 5 5 4 4 5 3 3 3 5 4 5 4 5 4 5 5 5 7 7 6 7 7 5 5 5 5 5 5 5 5 5 5 6 6 6 5 5 6 6 6 6 6
7 6 5 5 6 7 6 6 5 5 5 5 5 5 5 6 7 10 13 15 15 15 14 13 12 12 11 9 7 7 8 10 10 10 11 12 12 12 12 11 9 9 6 4 5 3 3 3 3 3 3 4 4 5 4 4 4 5 5 6 5 4 5 5 4 6 5 5 6 5 6 6 5 6 5 4 4 4 5 3 3 3 4 5 5
7 7 6 6 5 6 6 6 5 6 6 6 5 5 5 5 5 5 5 10 16 18 17 15 15 14 14 14 12 10 9 9 10 10 10 10 11 12 12 12 10 7 7 4 4 4 3 3 3 4 3 4 3 3 5 5 6 5 5 5 5 4 5 4 1 6 3 4 5 5 6 6 5 4 4 4 4 5 4 4 3 3 4 3 4
8 7 6 6 5 4 4 4 5 5 4 4 5 5 4 4 4 3 4 4 5 10 15 16 14 13 14 12 11 11 11 11 10 10 10 9 9 9 10 9 12 10 7 3 3 4 4 5 4 4 4 4 4 3 4 4 4 6 5 6 6 6 5 4 6 6 5 4 5 5 4 3 4 5 5 4 4 4 4 4 3 4 4 3 3
7 7 8 6 4 4 3 3 4 4 5 5 5 5 5 5 5 5 5 5 6 6 6 7 11 12 9 8 10 11 10 10 10 8 8 6 6 5 6 6 4 3 5 5 4 4 4 4 4 4 4 4 3 3 5 6 6 5 5 5 5 5 4 4 4 6 4 5 4 4 3 3 3 4 4 4 4 4 5 4 4 4 4 3 3
7 7 6 7 6 5 4 4 4 4 4 4 4 4 4 4 5 5 5 5 5 5 6 6 5 6 10 11 10 10 11 11 11 11 9 7 4 2 2 3 3 4 5 4 4 4 4 4 4 4 4 4 4 3 4 5 5 6 6 5 4 4 4 4 4 4 4 3 3 3 3 4 4 4 5 5 5 5 4 4 4 4 3 3 3
6 6 6 6 6 6 5 4 4 4 4 2 3 3 4 4 4 4 5 5 5 5 5 4 4 5 6 6 7 8 9 10 11 11 11 10 9 6 4 3 4 5 5 5 4 5 5 4 4 4 4 4 4 5 4 5 5 5 4 4 5 4 3 3 4 3 3 3 3 2 3 4 3 4 4 4 4 4 3 3 4 4 4 2 2
4 5 5 5 5 6 6 5 3 2 3 4 4 4 4 5 5 5 4 3 4 3 4 3 3 4 4 3 5 4 4 5 7 8 8 8 5 4 4 4 5 6 5 5 4 4 5 4 3 4 4 4 5 5 5 5 4 3 3 3 3 4 5 4 3 2 2 4 4 4 4 4 4 4 4 4 4 4 3 3 2 2 2 1 3
4 4 6 6 6 5 6 6 5 4 3 3 4 4 4 4 4 3 4 3 3 3 4 3 3 3 3 2 2 3 2 4 4 4 4 4 3 3 4 5 5 5 5 5 4 4 4 4 4 4 4 5 5 5 5 3 3 4 4 4 4 4 3 3 3 2 3 3 3 3 3 3 3 3 3 3 3 3 3 2 2 2 2 2 3
5 3 4 6 5 6 6 6 6 6 5 3 3 3 4 4 3 3 3 2 2 2 1 3 2 2 2 2 3 3 3 2 2 2 3 3 3 3 4 3 4 4 4 4 4 4 4 4 4 4 4 4 5 5 5 3 3 3 3 4 4 3 2 2 2 2 2 2 2 2 3 3 3 2 2 2 3 2 2 2 2 2 2 2 2
5 4 3 4 4 4 7 7 7 6 5 4 3 3 4 3 4 3 2 2 2 1 2 2 2 2 3 3 3 3 1 2 3 3 3 2 2 3 3 3 2 4 4 3 4 4 4 4 4 3 3 3 3 3 3 3 3 3 3 3 3 3 2 2 2 2 2 2 2 2 2 2 2 1 2 3 2 1 1 1 0 1 1 1 1
6 5 5 3 2 4 6 6 5 5 5 5 4 3 2 2 1 2 2 1 1 1 0 1 1 1 3 3 1 0 0 2 2 3 2 2 3 3 2 3 3 3 3 4 4 3 3 4 3 3 3 3 3 3 3 3 3 3 3 2 2 2 2 2 2 1 1 2 2 2 2 2 2 2 2 2 1 1 1 2 1 1 2 1 1
5 5 4 3 3 4 4 4 3 5 5 5 4 3 2 1 1 1 1 1 1 2 1 1 2 1 1 4 2 2 0 2 2 2 2 2 2 1 2 2 2 3 3 3 3 3 3 3 3 3 3 2 2 2 3 3 2 2 2 2 2 2 2 2 2 1 1 2 2 3 3 3 2 2 2 1 1 1 1 1 0 1 0 0 1
4 4 4 3 3 2 2 2 3 3 4 3 3 3 2 2 1 0 1 2 1 1 1 2 1 0 1 2 1 1 0 1 2 2 2 2 1 1 1 1 2 2 2 2 1 1 2 3 2 2 1 1 1 2 1 1 1 1 1 2 2 2 2 2 2 1 1 2 2 2 2 2 1 1 1 1 0 1 0 1 1 1 2 1 1
2 3 4 3 3 3 2 1 1 2 1 1 3 3 2 2 2 1 1 1 1 1 2 1 1 0 1 2 1 1 1 1 1 1 1 1 1 1 1 1 0 0 0 1 1 2 1 2 2 2 2 2 1 1 1 1 0 0 0 1 2 2 2 2 2 1 1 0 1 2 1 1 1 0 0 0 0 1 1 1 1 2 2 2 2
2 2 3 3 3 3 2 2 0 1 1 1 1 2 2 2 2 2 1 1 1 2 0 0 0 1 1 1 2 2 1 2 2 1 1 1 1 1 1 1 1 1 0 0 1 1 1 1 2 2 2 2 2 1 1 1 1 1 1 0 1 2 2 2 2 1 1 0 0 1 1 1 0 1 3 2 1 1 1 1 1 1 1 2 1
1 2 2 2 3 3 3 2 2 2 1 1 1 1 1 1 2 2 1 1 1 1 2 1 1 1 1 1 1 1 1 1 1 1 1 2 1 2 1 1 1 1 1 1 0 1 1 1 0 1 2 2 2 2 1 1 1 1 1 1 2 2 2 1 1 1 1 0 1 0 0 0 0 0 1 1 1 0 1 1 1 1 2 1 1
1 2 2 2 2 3 3 3 3 2 2 2 2 2 1 1 1 1 2 0 1 1 2 2 3 3 3 3 2 1 1 1 1 2 1 2 2 2 2 2 2 2 1 1 1 1 1 1 1 1 2 2 2 2 2 2 2 2 2 1 1 1 2 2 1 1 1 0 0 0 0 1 0 0 0 0 1 2 3 2 2 1 1 1 1
1 2 3 3 4 4 4 4 4 4 3 2 2 2 2 1 1 2 2 1 2 2 2 2 3 3 4 4 3 2 2 3 3 3 2 2 2 2 2 2 2 2 2 2 2 2 1 1 1 2 2 2 2 2 2 2 2 2 2 1 3 4 4 2 1 1 2 1 1 0 0 1 1 1 0 1 1 2 2 1 1 1 0 0 0
2 2 2 3 3 3 2 2 3 3 2 2 3 3 2 2 2 2 2 2 2 2 2 3 3 4 4 4 4 4 3 4 4 3 3 2 2 2 2 2 3 2 2 2 2 2 2 2 2 1 2 2 2 2 2 2 2 2 2 2 5 4 3 2 1 3 2 1 1 1 1 1 2 1 0 0 1 1 1 0 0 0 0 0 0
2 1 1 2 2 2 2 2 3 3 3 3 4 4 4 4 4 3 3 2 2 2 2 3 4 4 5 5 4 4 4 4 3 3 4 3 4 3 3 3 3 3 2 2 2 2 2 2 2 2 2 2 2 2 2 2 2 2 3 5 4 3 3 4 2 3 1 2 1 2 2 2 2 2 1 0 0 0 1 1 0 1 0 0 1
Wind_Direction
336 327 317 307 304 299 292 282 268 265 255 236 241 253 254 240 235 233 231 230 225 224 219 214 210 204 198 198 199 196 189 181 183 176 181 189 189 167 153 204 207 166 163 200 185 187 180 179 176 168 178 192 189 188 194 188 182 187 184 186 184 185 201 203 207 136 132 100 121 141 133 157 165 187 167 154 149 140 132 119 147 183 180 184 151
334 320 311 309 298 295 293 290 285 278 267 256 248 249 257 258 244 228 226 230 224 223 218 210 209 205 199 197 200 199 188 186 181 174 177 173 182 176 192 188 192 185 180 180 190 177 168 171 172 169 177 185 178 186 179 178 180 184 184 191 186 185 200 201 169 158 154 162 169 143 152 199 178 175 183 171 157 159 175 167 174 201 186 199 207
330 322 310 302 301 297 295 294 291 277 254 236 234 237 240 237 231 225 221 219 220 224 219 208 205 202 197 195 196 197 186 182 176 181 170 172 175 169 189 195 194 193 187 182 181 174 171 167 182 183 180 179 176 182 165 178 179 183 183 189 188 184 188 198 170 156 162 161 168 172 173 176 222 163 182 173 156 180 189 188 191 183 199 205 216
329 323 316 308 304 297 296 298 295 294 288 269 253 235 228 224 216 214 218 218 215 216 219 209 196 190 187 189 193 192 184 179 181 183 172 173 170 171 180 189 201 195 187 176 172 174 178 180 184 184 183 180 177 173 177 175 182 184 183 179 188 188 183 183 205 145 158 156 181 193 164 173 184 153 154 158 172 190 213 191 199 209 199 194 212
325 320 315 315 313 311 303 297 290 284 284 282 270 258 244 244 226 225 222 216 214 213 213 209 199 192 186 171 184 196 188 182 180 182 176 173 173 179 189 189 199 196 181 181 176 183 186 189 185 184 182 178 175 176 173 178 184 183 181 180 188 188 175 193 194 183 168 162 137 161 158 176 146 146 167 182 174 191 197 216 211 209 197 205 230
323 320 319 320 322 319 317 308 296 287 281 276 271 264 251 242 237 224 220 213 203 205 208 207 207 195 183 177 180 183 186 183 180 180 174 166 174 180 180 186 189 181 181 186 185 189 190 192 180 183 183 179 176 176 171 178 180 182 181 182 178 165 189 192 200 190 193 165 159 153 193 176 168 166 172 197 186 185 188 195 198 213 210 213 221
326 326 327 324 324 325 322 318 310 298 284 282 279 270 264 254 245 238 225 217 205 193 184 173 198 225 196 172 173 172 184 180 180 172 167 165 166 163 163 167 178 179 174 179 184 185 188 187 182 183 181 181 175 172 170 175 183 185 180 178 155 188 189 199 200 189 195 176 167 185 162 163 175 163 160 179 209 241 217 195 210 175 188 219 230
336 339 335 331 328 326 322 319 312 303 296 286 283 275 266 259 248 239 229 219 206 194 176 175 178 195 210 178 167 161 165 175 169 165 162 162 159 159 157 165 171 165 172 176 178 182 185 184 183 183 184 181 180 174 174 179 183 184 171 171 162 180 196 191 198 192 190 191 192 168 172 148 156 90 103 158 190 211 226 261 253 198 182 171 216
344 345 342 337 331 326 323 321 315 311 304 292 278 269 260 251 246 236 227 216 207 197 171 177 170 186 184 163 149 150 167 166 163 160 157 154 156 156 160 161 161 164 168 168 171 172 172 167 177 185 160 99 73 90 115 108 180 177 168 175 173 179 186 185 189 194 191 188 156 149 154 161 152 155 164 184 208 165 111 209 249 243 256 247 192
349 348 344 338 330 326 323 320 318 314 307 296 285 263 253 247 236 227 219 216 208 196 178 176 175 178 163 151 154 157 159 144 151 160 153 153 157 156 158 161 158 161 166 160 150 143 144 142 92 75 87 100 104 109 111 114 41 360 166 176 175 179 179 180 181 184 177 173 159 154 168 165 160 177 175 148 127 137 189 201 247 207 227 230 153
354 352 347 343 334 330 328 322 316 314 308 301 288 273 254 242 235 229 214 187 205 189 172 177 173 151 155 150 149 150 134 130 145 150 145 145 151 154 161 160 160 156 151 148 148 147 139 124 123 116 110 99 91 92 94 92 96 85 70 56 44 148 168 154 153 157 156 150 141 158 145 141 150 158 176 156 175 209 221 217 245 244 270 304 280
354 354 354 347 344 341 337 331 330 328 321 309 298 285 266 247 154 145 173 185 202 161 172 178 145 138 152 157 144 130 123 127 147 147 150 156 156 155 157 154 157 151 151 150 147 149 139 127 120 125 125 122 114 97 85 85 91 89 84 77 66 50 36 79 141 143 138 133 131 125 132 108 116 144 142 165 169 177 188 212 255 315 322 337 4
354 353 353 356 350 347 346 346 346 345 343 332 317 292 270 232 178 181 183 165 119 171 169 127 123 120 141 143 126 118 116 148 144 149 154 157 152 148 147 150 150 148 125 130 144 142 137 127 117 109 113 118 117 118 112 102 96 96 95 88 72 66 62 49 34 60 129 114 120 111 95 117 121 106 101 100 150 119 145 180 125 101 18 65 50
358 358 0 1 359 352 355 358 0 356 355 1 358 324 266 218 185 167 130 114 128 84 80 119 122 135 145 127 127 124 117 135 134 136 134 132 133 122 126 119 115 119 133 136 124 127 131 128 122 122 136 140 131 125 123 118 115 107 98 88 81 66 59 55 54 38 26 78 101 105 84 37 83 99 97 86 16 65 52 80 111 122 75 76 83
6 7 4 0 1 358 360 2 6 7 8 10 20 24 16 26 52 40 75 75 84 90 41 64 115 111 106 106 109 96 94 129 133 128 127 125 114 105 105 103 102 102 94 95 101 111 123 122 127 129 139 141 141 137 126 121 113 107 99 86 77 65 56 52 51 64 64 62 72 84 81 66 76 71 48 41 48 55 37 38 25 45 97 116 105
15 9 6 2 360 357 2 8 11 14 17 17 30 33 25 23 34 46 57 67 57 54 55 6 59 70 86 95 93 81 68 109 127 128 130 126 114 106 107 103 107 102 98 93 95 92 92 93 111 109 91 58 355 88 117 116 109 107 100 97 92 77 63 45 52 61 72 77 74 73 68 60 47 46 20 5 72 102 120 130 139 162 174 178 115
12 5 4 1 0 359 5 15 18 22 18 22 23 35 41 22 14 32 53 62 70 53 50 43 27 40 78 71 87 87 77 77 97 130 135 126 111 106 103 100 100 103 95 84 75 65 59 92 92 105 121 128 129 260 118 115 110 107 105 101 97 93 89 76 69 77 83 84 86 86 84 75 68 57 48 31 16 336 147 149 93 17 265 185 135
10 8 7 2 5 4 5 16 27 30 31 26 24 27 42 46 43 355 54 70 75 63 61 56 45 30 45 62 69 82 72 57 65 73 113 120 123 119 121 118 106 99 97 84 78 67 42 24 74 112 112 114 123 118 108 106 106 111 112 109 103 102 104 109 101 89 91 90 86 84 80 81 76 65 48 39 33 2 28 82 76 278 16 321 108
9 9 1 357 10 14 9 18 27 33 35 31 28 28 35 36 44 42 25 66 73 72 61 59 42 36 45 57 55 64 67 58 54 47 47 89 104 103 106 100 107 105 101 90 80 73 66 39 39 55 91 104 100 89 95 102 106 108 112 107 105 108 117 123 115 114 108 96 88 85 75 64 62 62 54 45 39 37 42 43 25 41 58 56 92
2 2 359 359 8 19 19 21 31 36 39 38 35 35 35 37 46 58 39 55 67 68 69 61 49 34 36 28 56 51 63 54 44 51 55 58 61 76 98 111 109 100 100 98 95 84 77 67 48 48 81 86 84 79 73 86 102 107 111 110 113 115 131 122 99 100 93 91 86 79 74 65 63 58 55 51 47 43 37 33 32 48 80 79 64
5 9 7 8 20 21 23 23 24 29 33 41 41 36 33 32 39 69 65 54 59 65 65 68 59 46 44 21 40 45 48 56 41 45 51 54 67 88 74 74 86 95 87 75 75 87 82 58 65 44 76 80 80 78 75 69 77 92 91 101 100 117 125 110 92 91 96 96 95 93 90 84 75 70 67 63 56 54 54 45 46 41 51 70 79
12 14 16 16 25 27 27 23 24 23 24 30 42 37 32 38 43 54 61 63 63 63 66 62 64 52 43 37 41 45 44 43 52 37 49 55 54 78 90 80 102 94 78 76 80 67 77 67 68 71 81 81 81 81 81 81 80 79 79 90 100 114 111 106 109 106 107 108 102 94 90 84 79 74 71 68 63 59 60 62 57 56 53 48 48
14 23 25 22 24 30 30 28 22 22 22 25 40 41 32 37 40 39 56 63 63 65 55 57 65 62 53 44 41 41 41 45 41 43 43 52 54 66 90 103 104 103 111 97 92 102 92 96 92 82 82 82 80 80 81 84 79 85 94 94 99 102 107 101 105 107 104 98 93 88 83 86 86 82 76 74 68 64 67 65 68 72 71 64 58
16 22 27 28 23 20 22 32 31 24 23 27 33 39 39 39 43 41 38 55 57 62 47 49 59 57 56 46 42 39 38 50 44 46 49 50 53 55 62 68 77 88 95 106 109 108 101 89 96 92 85 82 77 72 70 72 89 94 96 105 110 105 101 104 100 98 99 97 94 93 87 84 89 87 81 80 77 75 73 68 70 70 75 79 76
23 22 26 30 29 20 22 37 35 32 26 30 35 34 38 40 44 36 43 49 54 62 51 51 60 62 60 53 44 43 36 48 54 45 49 48 53 60 62 67 71 86 86 77 86 90 97 103 98 92 92 90 90 85 76 74 81 86 91 96 99 97 98 104 109 108 99 94 95 92 85 75 76 81 86 92 98 95 90 89 80 75 80 80 72
23 22 24 27 29 30 29 32 34 32 31 34 42 41 37 38 43 44 49 52 57 65 57 50 47 48 53 47 47 45 39 42 44 42 44 58 60 64 69 71 72 73 82 88 94 99 103 98 95 91 85 89 84 72 76 80 77 71 60 60 82 87 98 103 101 99 96 94 89 89 89 92 87 81 78 83 77 66 62 69 70 68 74 81 85
25 23 24 26 27 34 40 32 30 31 33 29 35 40 36 36 39 40 39 43 51 56 48 46 44 46 52 46 46 44 45 42 41 44 38 52 69 77 78 81 84 84 84 86 84 78 75 79 87 91 93 86 83 84 84 79 71 65 64 60 62 68 74 85 96 98 100 98 96 94 95 95 104 104 88 78 70 62 57 77 88 84 79 76 78
28 24 22 29 30 30 41 36 42 47 43 43 37 33 40 41 49 45 38 34 51 57 63 57 49 41 37 32 34 44 47 50 41 33 29 36 48 63 80 85 86 98 95 90 95 98 100 101 92 92 93 80 70 62 64 64 67 71 73 75 76 77 82 78 79 85 90 97 102 106 107 106 93 82 82 78 78 74 68 74 79 84 75 85 78
33 28 23 29 35 33 35 34 39 42 52 58 54 40 30 38 48 56 43 39 45 53 67 61 57 55 62 41 29 46 45 40 22 341 333 36 46 73 78 95 103 94 106 122 115 101 95 93 95 82 76 88 80 80 75 78 78 80 87 98 104 105 105 103 100 99 105 107 101 97 93 92 91 92 93 91 86 83 79 84 73 82 82 75 72
34 33 30 28 23 34 44 43 34 38 48 55 67 66 54 49 33 55 61 49 60 56 63 70 57 66 71 53 32 52 63 48 358 40 73 74 71 69 68 66 68 90 96 83 100 102 90 93 65 71 83 87 91 94 94 96 97 91 79 82 92 94 94 93 91 91 86 91 96 95 97 100 102 102 101 99 95 85 69 71 86 80 80 72 69
35 36 33 36 15 14 34 44 46 47 39 45 56 68 74 55 52 54 57 57 63 64 63 65 62 57 80 88 57 53 58 60 77 86 83 82 81 80 79 79 77 72 66 101 81 85 98 92 82 76 81 84 88 95 100 103 101 99 95 86 85 85 87 90 92 97 96 97 96 99 101 99 96 96 96 95 99 101 99 88 83 76 73 69 62
30 26 28 32 26 17 26 28 32 44 51 51 47 46 62 77 64 49 55 56 51 52 54 55 58 63 61 68 80 70 52 56 66 75 83 86 86 82 76 70 62 58 41 76 91 69 67 93 92 85 87 92 92 99 100 102 101 102 103 98 90 87 94 97 96 107 109 107 106 105 103 101 99 99 102 106 105 98 92 83 77 75 74 71 62
29 29 26 25 34 28 21 18 16 33 42 45 41 35 39 43 65 71 59 65 65 57 48 52 61 64 67 66 66 78 79 72 70 72 75 80 84 87 83 71 62 54 83 77 95 97 86 86 94 93 94 102 104 100 98 95 99 101 103 105 104 98 94 91 77 96 91 98 106 104 102 101 104 107 104 101 96 90 83 79 77 73 66 68 68
45 37 27 25 28 22 25 21 18 16 13 28 41 46 38 30 31 43 58 42 47 57 53 46 47 59 58 58 65 71 74 77 76 75 76 77 83 84 85 80 72 58 67 89 85 103 101 96 92 94 93 96 101 102 100 100 98 101 101 99 102 106 113 126 111 106 109 106 101 99 105 112 115 111 104 97 88 81 77 69 64 67 66 58 55
40 60 46 28 30 27 21 26 28 27 18 15 30 38 45 43 38 36 40 53 56 48 34 40 41 45 55 54 54 57 58 58 58 59 59 60 66 96 109 88 76 75 67 74 83 91 96 96 99 97 103 107 106 106 105 107 107 105 107 110 116 121 120 112 104 102 99 99 103 105 101 100 93 81 73 71 70 71 71 70 68 64 65 55 52
34 36 41 37 33 32 29 34 37 40 33 29 23 31 32 37 46 54 54 58 67 75 70 63 68 55 64 61 54 56 58 57 57 53 46 47 60 68 84 88 89 85 90 80 81 77 77 82 89 92 98 103 105 102 103 104 106 110 117 123 124 123 117 109 103 93 89 98 105 115 116 99 93 95 96 93 83 73 69 70 75 72 63 59 49
35 36 35 41 42 39 37 40 41 45 50 46 50 47 42 45 47 58 61 65 65 65 77 99 108 94 77 63 52 59 61 67 66 61 53 48 52 61 75 82 94 95 88 90 90 95 91 85 89 100 107 110 104 105 104 103 102 103 105 111 110 106 100 98 96 109 116 115 113 105 100 99 92 82 86 85 81 82 87 93 85 73 64 25 342
35 27 29 16 40 50 43 40 45 39 60 59 55 51 50 43 40 44 52 55 60 74 83 79 69 70 62 50 24 35 43 70 76 67 51 44 44 58 65 73 79 87 87 86 87 95 96 92 97 102 103 109 111 113 115 118 121 124 121 104 92 83 84 87 78 85 105 117 116 115 110 103 95 89 82 73 71 72 69 56 50 76 92 87 43
60 33 11 14 33 32 55 46 37 41 58 62 67 62 60 55 50 47 47 48 50 52 54 63 66 71 62 35 32 349 358 52 51 57 55 56 56 60 68 72 77 77 82 87 87 90 96 95 90 95 100 104 111 118 123 126 126 119 116 115 112 118 124 124 126 131 122 112 111 108 103 98 90 84 87 89 80 71 70 65 59 44 45 55 49
42 52 28 341 41 38 43 54 47 44 37 46 68 71 71 61 58 57 55 58 55 51 52 60 64 59 45 11 19 10 61 72 76 70 69 67 63 62 75 83 85 92 95 95 90 93 98 101 104 104 108 113 120 123 122 119 117 117 115 111 109 104 99 111 117 120 120 119 114 109 103 100 96 94 83 72 69 62 56 56 52 44 35 39 40
45 57 56 40 353 37 51 48 51 44 48 51 45 51 60 52 60 60 65 69 75 71 64 53 54 39 21 22 28 350 30 99 102 101 90 86 86 79 73 79 88 96 102 104 105 102 104 109 111 112 115 115 116 115 114 113 117 115 105 107 110 112 106 88 89 92 95 104 108 116 114 112 103 92 87 81 81 57 65 50 64 58 72 57 18
27 38 42 51 29 54 59 57 65 73 66 60 58 59 62 49 31 53 64 57 46 30 47 76 79 53 56 18 147 54 301 105 101 104 109 103 105 101 91 83 82 90 106 117 119 120 117 116 117 120 120 121 119 114 119 119 116 117 123 124 126 134 129 110 85 52 58 100 99 100 99 86 81 74 74 52 58 48 45 34 29 28 28 18 36
30 30 37 37 37 44 53 58 50 56 57 59 63 59 65 46 59 354 349 21 2 8 22 33 54 52 49 29 31 348 192 109 114 104 96 106 103 112 120 114 109 110 106 111 116 124 128 125 124 121 116 108 109 120 126 126 128 128 134 136 139 131 124 118 118 123 112 98 93 84 97 120 133 116 94 83 53 37 41 25 352 356 20 345 12
28 26 37 40 43 60 39 45 62 64 65 69 74 62 39 57 86 58 330 322 327 14 28 40 64 113 83 75 41 290 170 159 140 133 120 118 116 122 111 116 115 117 126 126 128 130 136 135 128 107 98 99 85 54 63 88 117 140 141 148 141 130 125 113 104 94 82 99 105 114 104 84 76 104 105 75 26 5 7 19 338 345 330 321 345
31 20 16 22 26 37 55 43 46 88 100 106 61 53 40 33 39 41 355 341 349 357 31 24 66 171 115 126 182 202 214 202 136 129 145 150 143 137 135 123 129 138 140 136 136 147 149 142 140 141 137 131 115 121 114 115 104 257 133 135 139 136 112 96 83 73 53 58 119 115 117 127 122 80 99 97 352 313 322 336 333 324 294 320 321
43 19 20 13 13 22 33 61 15 13 40 43 55 51 36 19 27 29 38 22 11 340 356 275 210 250 250 162 170 196 212 202 192 174 159 171 172 159 155 161 146 152 156 165 148 178 171 169 166 162 155 142 136 140 139 138 138 110 95 47 68 84 85 86 96 107 91 44 64 110 112 116 65 39 21 329 333 339 341 326 288 302 326 295 324
51 23 14 19 21 28 24 15 26 27 24 19 12 26 21 19 7 352 10 21 348 305 293 290 253 234 223 214 236 238 214 212 209 192 189 186 184 185 169 172 178 178 158 158 157 174 168 209 192 161 152 143 140 140 148 141 133 126 113 109 95 97 107 109 113 108 103 80 356 316 20 329 354 174 163 268 292 298 298 289 310 286 286 310 305
54 42 44 45 50 50 48 38 52 34 38 35 18 18 26 343 303 294 321 310 219 233 251 256 262 271 270 268 240 234 224 233 227 224 197 190 191 192 180 176 187 193 178 165 175 184 183 185 182 174 151 150 156 161 153 146 143 139 140 136 127 88 104 133 126 129 125 132 166 202 208 264 277 334 52 359 325 332 309 313 304 292 273 260 300
52 62 70 62 59 52 45 41 40 35 37 25 41 41 42 25 347 294 269 259 269 268 263 259 256 256 262 268 265 249 227 222 226 226 222 208 188 182 184 186 183 183 193 197 186 176 181 177 173 185 176 172 173 162 160 158 156 155 144 133 95 100 146 242 286 109 110 176 182 199 226 209 185 165 175 307 323 313 316 320 310 303 245 209 237
54 59 76 80 67 53 37 18 19 22 23 18 22 29 28 33 31 19 344 316 295 279 272 273 272 270 272 270 260 251 236 236 232 226 221 210 193 181 180 182 187 190 199 197 194 176 186 166 170 184 182 180 168 174 170 167 169 151 161 114 118 151 148 158 52 116 205 209 193 223 221 216 188 212 235 297 320 287 266 34 4 299 81 56 88
58 60 66 60 48 33 7 1 1 2 1 4 358 358 357 0 12 18 10 355 339 331 310 292 283 276 269 265 266 261 251 241 236 239 234 217 190 181 184 185 192 193 193 187 186 189 187 183 182 175 183 179 184 182 182 170 174 152 101 112 149 160 161 187 178 173 249 286 213 203 205 199 203 208 231 251 218 144 23 317 318 322 315 78 35